Location: Asheville, NC
(35.6000°N, 82.5500°W)
Time: 06:26:46
(UTC-05:00)

Vanguard 1 - Pass Details

Date: 15 February 2018
Orbit: 650 x 3833 km, 34.2° (Epoch: 24 February)

Event Time Altitude Azimuth Distance (km) Brightness Sun altitude
Rises 14:30:41 0° 218° (SW) 6,661 15.3 35.7°
Reaches altitude 10° 14:36:29 10° 210° (SSW) 5,084 15.1 35.1°
Maximum altitude 14:47:07 30° 156° (SSE) 2,640 12.9 33.8°
Drops below altitude 10° 14:53:43 10° 98° (E) 3,092 12.4 33.0°
Sets 14:56:17 0° 87° (E) 3,760 12.7 32.7°
